Tracking 19794 objects as of 22-Jul-2019
HD Live streaming from Space Station
objects crossing your sky now

METEOR 2-17 DEB

Track METEOR 2-17 DEB now!
10-day predictions


NORAD ID: 31397
Int'l Code: 1988-005S
Perigee: 926.5 km
Apogee: 931.1 km
Inclination: 82.5 °
Period: 103.4 minutes
Semi major axis: 7299 km
RCS: 0.0107 m2 (small)
Launch date: January 30, 1988
Source: Commonwealth of Independent States (former USSR) (CIS)
Launch site: PLESETSK MISSILE AND SPACE COMPLEX (PKMTR)

Note: This is SATELLITE DEBRIS
aabbcc
Your satellite tracking list
Your tracking list is empty




NASA's NSSDC Master Catalog

Two Line Element Set (TLE):
1 31397U 88005S   19202.18571852 -.00000094  00000-0 -85963-4 0  9995
2 31397  82.5411 154.4258 0003169 352.3054  70.0370 13.91993205643794
Source of the keplerian elements: AFSPC